Location: Gwatt
(46.7204°N, 7.6223°E)
Time: 15:49:23
(UTC+00:00)

deb Explorer IX - Pass Details

Date: 21 January 2021
Orbit: 537 x 1102 km, 38.8° (Epoch: 04 March)

Event Time Altitude Azimuth Distance (km) Brightness Sun altitude
Rises 22:51:32 0° 264° (W) 3,042 - -61.1°
Reaches altitude 10° 22:54:55 10° 242° (WSW) 2,013 - -61.4°
Maximum altitude 22:57:31 15° 207° (SSW) 1,637 - -61.5°
Drops below altitude 10° 22:59:58 10° 172° (S) 1,876 - -61.7°
Sets 23:02:57 0° 148° (SSE) 2,712 - -61.9°
